User: anonymous   Login
Location: Unspecified
(0.0000°N, 0.0000°E)
Time: 11:31:20
(UTC+01:00)
Language:

Cosmos 1300 - Orbit

View from above orbital plane
View from above orbital plane
View from above satellite
View from above satellite

Ground track
Ground track

The orbit data is extracted from the following two-line orbital elements,

1 12785U 81082A   17022.86561664  .00000504  00000-0  24240-4 0  9991
2 12785  82.5024 216.9096 0002347  62.9844  22.3412 15.16513960929829
Epoch (UTC): 22 January 2017 20:46:29
Eccentricity: 0.0002347
inclination: 82.5024°
perigee height: 515 km
apogee height: 518 km
right ascension of ascending node: 216.9096°
argument of perigee: 62.9844°
revolutions per day: 15.16513960
mean anomaly at epoch: 22.3412°
orbit number at epoch: 92982

The dashed part of the orbit path shows where the satellite is in the earth's shadow,  

DLR